TimeEST,TemperatureF,Dew PointF,Humidity,Sea Level PressureIn,VisibilityMPH,Wind Direction,Wind SpeedMPH,Gust SpeedMPH,PrecipitationIn,Events,Conditions,WindDirDegrees,DateUTC
12:54 AM,21.0,10.0,63,30.18,9.0,WNW,21.9,27.6,0.00,Snow,Light Snow,290,2013-02-20 05:54:00
1:42 AM,21.2,10.4,63,30.15,9.0,WNW,13.8,-,0.00,Snow,Light Snow,290,2013-02-20 06:42:00
1:54 AM,19.9,10.9,68,30.19,9.0,West,18.4,23.0,0.00,Snow,Light Snow,280,2013-02-20 06:54:00
2:54 AM,18.0,10.9,74,30.20,9.0,NW,13.8,-,0.00,Snow,Light Snow,310,2013-02-20 07:54:00
3:54 AM,18.0,9.0,68,30.23,9.0,WNW,17.3,-,0.00,Snow,Light Snow,290,2013-02-20 08:54:00
4:54 AM,16.0,10.0,77,30.24,9.0,NW,15.0,-,0.00,Snow,Light Snow,310,2013-02-20 09:54:00
5:54 AM,14.0,6.1,71,30.26,9.0,NW,16.1,-,0.00,Snow,Light Snow,310,2013-02-20 10:54:00
6:54 AM,12.0,6.1,77,30.27,9.0,WNW,11.5,-,0.00,Snow,Light Snow,300,2013-02-20 11:54:00
7:15 AM,10.4,5.0,79,30.23,9.0,NW,8.1,-,0.00,,Scattered Clouds,310,2013-02-20 12:15:00
7:30 AM,12.2,5.0,73,30.23,10.0,NW,13.8,-,0.00,Snow,Light Snow,320,2013-02-20 12:30:00
7:43 AM,10.4,3.2,73,30.24,9.0,NW,10.4,-,0.00,,Scattered Clouds,310,2013-02-20 12:43:00
7:54 AM,10.9,3.9,73,30.29,10.0,NW,9.2,-,0.00,,Partly Cloudy,310,2013-02-20 12:54:00
8:54 AM,12.9,5.0,71,30.33,10.0,WNW,11.5,-,N/A,,Scattered Clouds,300,2013-02-20 13:54:00
9:54 AM,15.1,5.0,64,30.32,10.0,WNW,9.2,-,N/A,,Scattered Clouds,300,2013-02-20 14:54:00
10:54 AM,17.1,5.0,59,30.34,10.0,NW,8.1,-,N/A,,Scattered Clouds,310,2013-02-20 15:54:00
11:54 AM,19.9,7.0,57,30.35,10.0,West,8.1,-,N/A,,Scattered Clouds,270,2013-02-20 16:54:00
12:54 PM,23.0,8.1,53,30.34,10.0,WNW,11.5,-,N/A,,Scattered Clouds,290,2013-02-20 17:54:00
1:54 PM,25.0,9.0,51,30.32,10.0,WNW,6.9,-,N/A,,Scattered Clouds,290,2013-02-20 18:54:00
2:54 PM,26.1,10.0,51,30.32,10.0,West,12.7,-,N/A,,Mostly Cloudy,280,2013-02-20 19:54:00
3:54 PM,26.1,10.9,53,30.32,10.0,WNW,11.5,18.4,N/A,,Mostly Cloudy,290,2013-02-20 20:54:00
4:54 PM,26.6,12.2,55,30.27,10.0,NW,10.4,-,N/A,,Mostly Cloudy,320,2013-02-20 21:54:00
5:54 PM,24.1,12.9,62,30.32,10.0,NNW,10.4,-,N/A,,Overcast,330,2013-02-20 22:54:00
6:54 PM,24.1,15.1,69,30.34,10.0,NNW,9.2,-,N/A,,Overcast,340,2013-02-20 23:54:00
7:54 PM,24.1,15.1,69,30.33,10.0,NNW,10.4,-,N/A,,Overcast,340,2013-02-21 00:54:00
8:54 PM,23.0,14.0,68,30.33,10.0,NNW,6.9,-,N/A,,Overcast,340,2013-02-21 01:54:00
9:54 PM,23.0,14.0,68,30.33,10.0,NNE,6.9,-,N/A,,Overcast,30,2013-02-21 02:54:00
10:54 PM,21.0,14.0,74,30.33,10.0,NNE,6.9,-,N/A,,Mostly Cloudy,30,2013-02-21 03:54:00
11:54 PM,19.0,12.9,77,30.34,10.0,NNE,3.5,-,N/A,,Mostly Cloudy,30,2013-02-21 04:54:00